Location: Harbor Side
(32.6101°N, 117.0814°W)
Time: 07:50:07
(UTC+00:00)

Cosmos 1125 Rocket - Pass Details

Date: 21 April 2021
Orbit: 758 x 779 km, 74.0° (Epoch: 13 May)

Event Time Altitude Azimuth Distance (km) Brightness Sun altitude
Exits shadow 12:06:11 20° 241° (WSW) 1,725 4.7 -13.8°
Maximum altitude 12:09:04 34° 292° (WNW) 1,255 4.3 -13.2°
Drops below altitude 10° 12:13:50 10° 357° (N) 2,317 6.3 -12.3°
Sets 12:16:25 0° 6° (N) 3,243 7.2 -11.8°
